{"data":{"norad_id":58808,"intl_designator":"2024-012X","name":"STARLINK-31174","alt_names":[],"object_type":"PAYLOAD","status":"ACTIVE","operator":null,"country":"US","launch_date":"2024-01-15","launch_site_code":"AFETR","launch_vehicle":null,"mission":null,"orbit_class":"UNKNOWN","rcs_meters":null,"size_class":null,"mass_kg":null,"dimensions":null,"purposes":["comms"],"wikipedia_slug":null,"has_3d_model":false,"image_url":null,"decayed_at":null,"tle_current":{"epoch":"2026-09-20T08:45:25.305408Z","epoch_age_seconds":164281,"freshness":"FRESH","line1":"1 58808U 24012X   26263.36487622  .00000346  00000+0  22094-4 0  9998","line2":"2 58808  43.0001 145.4197 0001103 273.7154  86.3571 15.27572967151013","mean_motion":15.27572967,"eccentricity":0.0001103,"inclination_deg":43.0001,"raan_deg":145.4197,"arg_perigee_deg":273.7154,"mean_anomaly_deg":86.3571,"bstar":2.2094e-5,"rev_number":15101,"period_min":94.267182721099,"perigee_km":482.31336430331,"apogee_km":483.82694660181,"semimajor_km":6861.2071554526,"source":"CELESTRAK","updated_at":"2026-09-21T09:00:33.982275Z"}}}